Location: Killam
(52.7910°N, 111.8608°W)
Time: 16:36:13
(UTC+00:00)

Injun/Solrad 3 - Pass Details

Date: 21 February 2026
Orbit: 872 x 984 km, 66.8° (Epoch: 8 March)

Event Time Altitude Azimuth Distance (km) Brightness Sun altitude
Rises 01:28:33 0° 319° (NW) 3,551 11.4 -6.6°
Reaches altitude 10° 01:31:06 10° 323° (NW) 2,623 10.7 -6.9°
Maximum altitude 01:37:07 58° 43° (NE) 1,094 8.1 -7.8°
Drops below altitude 10° 01:43:18 10° 122° (ESE) 2,689 9.8 -8.8°
Enters shadow 01:45:37 - 126° (SE) 3,531 10.5 -9.1°
